DW7126 Weather Reports


time (UTC)temp
C
wind
direction
speed
KPH
gust
KPH
rain 1hr
cm
rain 24hr
cm
rain mn
cm
humidity
%
barometer
mb
20181023132529 25 205 8.0 17.7 0.00 0.00 0.00 58 1022.0
20181023132038 25 159 8.0 17.7 0.00 0.00 0.00 58 1022.0
20181023131611 25 173 4.8 16.1 0.00 0.00 0.00 57 1022.0
20181023131526 25 173 4.8 16.1 0.00 0.00 0.00 57 1022.0
20181023131038 25 192 6.4 16.1 0.00 0.00 0.00 58 1022.1
20181023130530 25 156 1.6 11.3 0.00 0.00 0.00 59 1022.0
20181023130044 24 180 6.4 14.5 0.00 0.00 0.00 60 1022.2
20181023125523 23 113 6.4 14.5 0.00 0.00 0.00 61 1022.3
20181023125045 23 72 8.0 14.5 0.00 0.00 0.00 60 1022.3
20181023124542 23 104 9.7 14.5 0.00 0.00 0.00 60 1022.5
20181023124047 23 111 3.2 14.5 0.00 0.00 0.00 61 1022.5
20181023123531 23 101 9.7 14.5 0.00 0.00 0.00 61 1022.5
20181023123054 23 116 8.0 14.5 0.00 0.00 0.00 61 1022.7
20181023122545 23 182 8.0 14.5 0.00 0.00 0.00 60 1022.7
20181023122035 23 128 9.7 25.7 0.00 0.00 0.00 60 1022.7
20181023121526 23 92 12.9 25.7 0.00 0.00 0.00 59 1022.8
20181023121053 23 139 11.3 16.1 0.00 0.00 0.00 59 1022.7
20181023120541 23 129 12.9 16.1 0.00 0.00 0.00 59 1022.8
20181023120152 23 71 8.0 17.7 0.00 0.00 0.00 60 1022.6
20181023120043 23 110 9.7 17.7 0.00 0.00 0.00 60 1022.7
20181023115523 23 85 9.7 22.5 0.00 0.00 0.00 61 1022.7
20181023115051 22 94 14.5 22.5 0.00 0.00 0.00 62 1022.7
20181023114708 22 81 12.9 22.5 0.00 0.00 0.00 62 1022.5
20181023114539 22 88 14.5 22.5 0.00 0.00 0.00 62 1022.7
20181023114052 22 98 14.5 22.5 0.00 0.00 0.00 62 1022.8
20181023113538 21 88 11.3 16.1 0.00 0.00 0.00 63 1022.9
20181023113121 21 96 9.7 25.7 0.00 0.00 0.00 63 1022.7
20181023113044 21 98 9.7 25.7 0.00 0.00 0.00 63 1022.9
20181023112533 21 113 12.9 27.4 0.00 0.00 0.00 62 1022.9
20181023112032 22 115 12.9 27.4 0.00 0.00 0.00 62 1022.8
20181023111545 22 118 12.9 25.7 0.00 0.00 0.00 62 1022.8
20181023111043 21 66 19.3 25.7 0.00 0.00 0.00 62 1022.7
20181023110530 22 119 16.1 24.1 0.00 0.00 0.00 62 1022.7
20181023110043 22 136 12.9 22.5 0.00 0.00 0.00 62 1022.8
20181023105533 21 150 14.5 22.5 0.00 0.00 0.00 63 1022.7
20181023105057 21 132 16.1 25.7 0.00 0.00 0.00 63 1022.6
20181023104541 21 126 17.7 32.2 0.00 0.00 0.00 64 1022.6
20181023104033 21 126 17.7 32.2 0.00 0.00 0.00 62 1022.7
20181023103529 22 143 20.9 30.6 0.00 0.00 0.00 61 1022.5
20181023103052 22 126 17.7 24.1 0.00 0.00 0.00 61 1022.5
20181023102539 22 100 14.5 27.4 0.00 0.00 0.00 62 1022.5
20181023102054 21 92 19.3 29.0 0.00 0.00 0.00 62 1022.5
20181023101543 21 81 24.1 29.0 0.00 0.00 0.00 62 1022.5
20181023101509 21 86 22.5 29.0 0.00 0.00 0.00 62 1022.3
20181023101056 21 98 20.9 27.4 0.00 0.00 0.00 62 1022.4
20181023100542 20 96 20.9 27.4 0.00 0.00 0.00 63 1022.4
20181023100042 20 90 17.7 29.0 0.00 0.00 0.00 63 1022.4
20181023095527 20 67 20.9 29.0 0.00 0.00 0.00 63 1022.4
20181023095048 20 83 20.9 29.0 0.00 0.00 0.00 63 1022.4
20181023094543 20 80 20.9 30.6 0.00 0.00 0.00 63 1022.4
20181023094053 20 76 22.5 33.8 0.00 0.00 0.00 63 1022.5
20181023093539 20 119 22.5 30.6 0.00 0.00 0.00 63 1022.4
20181023093045 20 92 17.7 33.8 0.00 0.00 0.00 63 1022.4
20181023092524 20 94 20.9 33.8 0.00 0.00 0.00 63 1022.4
20181023092043 20 96 20.9 30.6 0.00 0.00 0.00 63 1022.4
20181023091531 20 105 22.5 29.0 0.00 0.00 0.00 63 1022.3
20181023091046 20 86 19.3 35.4 0.00 0.00 0.00 63 1022.3
20181023090536 19 78 27.4 35.4 0.00 0.00 0.00 64 1022.3
20181023090040 19 54 22.5 27.4 0.00 0.00 0.00 64 1022.2
20181023085529 19 91 19.3 25.7 0.00 0.00 0.00 64 1022.3
20181023085044 18 96 19.3 25.7 0.00 0.00 0.00 64 1022.2
20181023084542 18 107 19.3 24.1 0.00 0.00 0.00 65 1022.3
20181023084053 18 87 19.3 25.7 0.00 0.00 0.00 64 1022.2
20181023083539 18 79 17.7 30.6 0.00 0.00 0.00 64 1022.2
20181023083026 18 88 24.1 35.4 0.00 0.00 0.00 64 1022.0
20181023082544 18 75 25.7 35.4 0.00 0.00 0.00 64 1022.0
20181023082048 18 84 20.9 30.6 0.00 0.00 0.00 64 1022.0
20181023081534 18 94 22.5 37.0 0.00 0.00 0.00 63 1022.0
20181023081044 18 97 24.1 37.0 0.00 0.00 0.00 63 1021.8
20181023080533 18 81 29.0 37.0 0.00 0.00 0.00 63 1021.7
20181023080058 18 91 24.1 37.0 0.00 0.00 0.00 63 1021.6
20181023075540 18 80 25.7 30.6 0.00 0.00 0.00 63 1021.6
20181023075052 18 111 22.5 30.6 0.00 0.00 0.00 63 1021.6
20181023073529 17 109 20.9 35.4 0.00 0.00 0.00 64 1021.5
20181023073051 17 83 22.5 35.4 0.00 0.00 0.00 63 1021.4
20181023072540 17 89 24.1 30.6 0.00 0.00 0.00 63 1021.3
20181023072047 17 72 20.9 35.4 0.00 0.00 0.00 63 1021.2
20181023071536 18 100 24.1 35.4 0.00 0.00 0.00 63 1021.2
20181023071028 17 105 24.1 33.8 0.00 0.00 0.00 64 1021.1
20181023070541 17 98 24.1 33.8 0.00 0.00 0.00 64 1021.1
20181023070049 17 82 25.7 33.8 0.00 0.00 0.00 64 1021.0
20181023065534 17 92 25.7 30.6 0.00 0.00 0.00 65 1021.0
20181023065025 17 86 24.1 30.6 0.00 0.00 0.00 66 1020.9
20181023064542 17 91 25.7 30.6 0.00 0.00 0.00 66 1021.0
20181023064045 17 84 24.1 29.0 0.00 0.00 0.00 66 1020.9
20181023063529 17 80 24.1 30.6 0.00 0.00 0.00 67 1020.9
20181023063033 17 88 22.5 30.6 0.00 0.00 0.00 67 1020.8
20181023062523 17 88 22.5 27.4 0.00 0.00 0.00 68 1020.8
20181023062047 17 104 20.9 27.4 0.00 0.00 0.00 69 1020.7
20181023061539 17 100 19.3 25.7 0.00 0.00 0.00 70 1020.8
20181023061043 17 92 16.1 24.1 0.00 0.00 0.00 71 1020.9
20181023060533 17 81 16.1 24.1 0.00 0.00 0.00 71 1020.8
20181023060054 17 90 19.3 25.7 0.00 0.00 0.00 70 1020.8
20181023060047 17 90 17.7 25.7 0.00 0.00 0.00 70 1020.7
20181023055542 17 70 19.3 25.7 0.00 0.00 0.00 71 1020.8
20181023055044 17 78 17.7 22.5 0.00 0.00 0.00 71 1020.7
20181023054531 17 94 14.5 27.4 0.00 0.00 0.00 71 1020.6
20181023054044 17 111 17.7 27.4 0.00 0.00 0.00 71 1020.6
20181023053541 17 91 19.3 25.7 0.00 0.00 0.00 71 1020.5
20181023053054 17 84 22.5 30.6 0.00 0.00 0.00 71 1020.5
20181023053040 17 86 22.5 30.6 0.00 0.00 0.00 71 1020.3
20181023052542 17 94 22.5 30.6 0.00 0.00 0.00 71 1020.5
20181023052046 17 78 22.5 33.8 0.00 0.00 0.00 70 1020.4
20181023051638 17 86 20.9 33.8 0.00 0.00 0.00 70 1020.2
20181023051530 18 87 22.5 33.8 0.00 0.00 0.00 70 1020.4
20181023051046 18 91 24.1 30.6 0.00 0.00 0.00 70 1020.3
20181023050543 18 88 25.7 33.8 0.00 0.00 0.00 71 1020.2
20181023050047 18 82 25.7 37.0 0.00 0.00 0.00 71 1020.3
20181023045540 18 80 27.4 37.0 0.00 0.00 0.00 71 1020.2
20181023045047 18 93 27.4 33.8 0.00 0.00 0.00 72 1020.2
20181023044538 18 86 24.1 30.6 0.00 0.00 0.00 72 1020.2
20181023044515 17 105 24.1 32.2 0.00 0.00 0.00 72 1020.0
20181023044037 18 84 24.1 29.0 0.00 0.00 0.00 73 1020.2
20181023043529 18 90 19.3 27.4 0.00 0.00 0.00 74 1020.2
20181023043035 17 89 17.7 27.4 0.00 0.00 0.00 74 1020.2
20181023042523 17 91 17.7 24.1 0.00 0.00 0.00 75 1020.1
20181023042031 17 82 16.1 27.4 0.00 0.00 0.00 76 1020.1
20181023041621 17 79 17.7 27.4 0.00 0.00 0.00 75 1019.9
20181023041527 17 65 19.3 27.4 0.00 0.00 0.00 75 1020.0
20181023041055 18 94 20.9 30.6 0.00 0.00 0.00 75 1020.0
20181023040545 18 94 20.9 33.8 0.00 0.00 0.00 74 1019.9
20181023040054 18 110 22.5 33.8 0.00 0.00 0.00 74 1019.8
20181023035541 18 82 24.1 29.0 0.00 0.00 0.00 75 1019.8
20181023035048 18 79 22.5 29.0 0.00 0.00 0.00 75 1019.8
20181023034533 18 84 19.3 29.0 0.00 0.00 0.00 76 1019.8
20181023034028 18 98 19.3 27.4 0.00 0.00 0.00 76 1019.7
20181023033545 18 84 20.9 27.4 0.00 0.00 0.00 76 1019.7
20181023033045 18 92 22.5 30.6 0.00 0.00 0.00 76 1019.6
20181023032545 18 80 20.9 30.6 0.00 0.00 0.00 76 1019.6
20181023032056 18 78 20.9 27.4 0.00 0.00 0.00 76 1019.7
20181023031541 18 92 20.9 29.0 0.00 0.00 0.00 76 1019.7
20181023031037 18 99 20.9 29.0 0.00 0.00 0.00 76 1019.7
20181023030523 18 92 22.5 33.8 0.00 0.00 0.00 78 1019.8
20181023030050 18 137 22.5 33.8 0.00 0.00 0.00 78 1019.8
20181023030023 18 96 22.5 33.8 0.00 0.00 0.00 78 1019.7
20181023025529 18 92 24.1 30.6 0.00 0.00 0.00 78 1019.8
20181023025051 18 91 24.1 29.0 0.00 0.00 0.00 79 1019.9
20181023024538 17 80 17.7 25.7 0.00 0.00 0.00 81 1019.9
20181023024520 17 84 16.1 25.7 0.00 0.00 0.00 81 1019.8
20181023024045 18 93 14.5 17.7 0.00 0.00 0.00 81 1020.0
20181023023535 18 98 12.9 17.7 0.00 0.00 0.00 81 1019.9
20181023023041 17 80 14.5 17.7 0.00 0.00 0.00 83 1019.9
20181023023006 17 96 12.9 17.7 0.00 0.00 0.00 83 1019.8
20181023022535 17 104 11.3 17.7 0.00 0.00 0.00 85 1020.0
20181023022036 17 100 9.7 14.5 0.00 0.00 0.00 87 1020.1
20181023021622 16 111 8.0 14.5 0.00 0.00 0.00 89 1019.9
20181023021526 16 88 9.7 14.5 0.00 0.00 0.00 89 1020.1
20181023021049 15 100 6.4 11.3 0.00 0.00 0.00 91 1020.1
20181023020540 15 101 4.8 11.3 0.00 0.00 0.00 91 1020.1
20181023020052 15 132 4.8 11.3 0.00 0.00 0.00 91 1020.1
20181023015537 15 128 6.4 11.3 0.00 0.00 0.00 92 1020.1
20181023015042 15 123 1.6 6.4 0.00 0.00 0.00 92 1020.2
20181023014534 15 123 1.6 8.0 0.00 0.00 0.00 92 1020.1
20181023014504 14 123 3.2 8.0 0.00 0.00 0.00 92 1020.0
20181023014037 14 134 3.2 8.0 0.00 0.00 0.00 92 1020.1
20181023013530 14 103 0.0 4.8 0.00 0.00 0.00 93 1020.1
20181023013116 13 103 0.0 4.8 0.00 0.00 0.00 92 1020.1
20181023013037 14 103 0.0 4.8 0.00 0.00 0.00 92 1020.2
20181023012523 13 102 0.0 4.8 0.00 0.00 0.00 92 1020.1
20181023012053 13 102 1.6 4.8 0.00 0.00 0.00 92 1020.1
20181023011541 14 96 1.6 8.0 0.00 0.00 0.00 92 1020.1
20181023011510 13 96 1.6 8.0 0.00 0.00 0.00 92 1019.9
20181023011034 14 94 1.6 8.0 0.00 0.00 0.00 92 1020.1
20181023010528 14 100 1.6 4.8 0.00 0.00 0.00 92 1020.2
20181023010047 13 131 0.0 1.6 0.00 0.00 0.00 92 1020.2
20181023005539 13 131 0.0 3.2 0.00 0.00 0.00 92 1020.1
20181023005045 13 131 0.0 3.2 0.00 0.00 0.00 92 1020.2
20181023004543 14 131 0.0 0.0 0.00 0.00 0.00 92 1020.2
20181023004056 14 131 0.0 3.2 0.00 0.00 0.00 92 1020.2
20181023003544 14 131 1.6 3.2 0.00 0.00 0.00 92 1020.2
20181023003026 14 131 0.0 3.2 0.00 0.00 0.00 92 1020.2
20181023002541 14 131 0.0 3.2 0.00 0.00 0.00 92 1020.1
20181023002037 14 131 3.2 3.2 0.00 0.00 0.00 92 1020.2
20181023001526 14 131 1.6 3.2 0.00 0.00 0.00 92 1020.3
20181023001055 14 131 0.0 0.0 0.00 0.00 0.00 91 1020.3
20181023000546 15 131 0.0 0.0 0.00 0.00 0.00 91 1020.4
20181023000058 15 131 0.0 0.0 0.00 0.00 0.00 91 1020.4
20181023000019 14 131 0.0 0.0 0.00 0.00 0.00 91 1020.2
20181022235542 15 131 0.0 0.0 0.00 0.00 0.00 91 1020.4
20181022235038 15 131 0.0 0.0 0.00 0.00 0.00 91 1020.4
20181022234609 14 131 0.0 3.2 0.00 0.00 0.00 91 1020.3
20181022234530 15 131 0.0 3.2 0.00 0.00 0.00 91 1020.5
20181022234050 15 131 1.6 4.8 0.00 0.00 0.00 91 1020.5
20181022233539 15 131 3.2 4.8 0.00 0.00 0.00 90 1020.6
20181022233039 15 131 0.0 0.0 0.00 0.00 0.00 91 1020.6
20181022233033 15 131 0.0 0.0 0.00 0.00 0.00 91 1020.5
20181022232523 15 131 0.0 0.0 0.00 0.00 0.00 90 1020.6
20181022232050 15 131 0.0 0.0 0.00 0.00 0.00 90 1020.6
20181022231536 15 131 0.0 3.2 0.00 0.00 0.00 89 1020.6
20181022231521 15 131 0.0 3.2 0.00 0.00 0.00 89 1020.5
20181022231049 15 131 1.6 3.2 0.00 0.00 0.00 90 1020.6
20181022230531 15 131 0.0 0.0 0.00 0.00 0.00 90 1020.7
20181022230041 15 131 0.0 0.0 0.00 0.00 0.00 90 1020.7
20181022225538 15 131 0.0 0.0 0.00 0.00 0.00 89 1020.8
20181022225031 15 131 0.0 0.0 0.00 0.00 0.00 89 1020.9
20181022224526 15 131 0.0 0.0 0.00 0.00 0.00 88 1021.0
20181022224034 15 131 0.0 0.0 0.00 0.00 0.00 88 1021.0
20181022223530 16 131 0.0 0.0 0.00 0.00 0.00 88 1021.0
20181022223055 16 131 0.0 0.0 0.00 0.00 0.00 88 1021.0
20181022222541 16 131 0.0 0.0 0.00 0.00 0.00 87 1021.1
20181022222057 16 131 0.0 1.6 0.00 0.00 0.00 88 1021.1
20181022221544 16 131 0.0 3.2 0.00 0.00 0.00 88 1021.2
20181022221039 16 131 1.6 4.8 0.00 0.00 0.00 88 1021.1
20181022220524 16 131 3.2 4.8 0.00 0.00 0.00 88 1021.1
20181022220050 16 131 3.2 4.8 0.00 0.00 0.00 87 1021.1
20181022220018 15 131 1.6 3.2 0.00 0.00 0.00 87 1021.0
20181022215544 16 130 0.0 3.2 0.00 0.00 0.00 87 1021.1
20181022215048 16 130 0.0 3.2 0.00 0.00 0.00 86 1021.0
20181022214620 16 130 1.6 3.2 0.00 0.00 0.00 86 1020.9
20181022214529 16 133 1.6 3.2 0.00 0.00 0.00 86 1020.9
20181022214039 16 178 0.0 4.8 0.00 0.00 0.00 85 1020.9
20181022213536 16 178 3.2 6.4 0.00 0.00 0.00 85 1020.8
20181022213046 16 178 3.2 6.4 0.00 0.00 0.00 85 1020.8
20181022212533 16 98 0.0 0.0 0.00 0.00 0.00 85 1020.8
20181022212035 17 97 0.0 0.0 0.00 0.00 0.00 85 1020.8
20181022211539 17 98 0.0 3.2 0.00 0.00 0.00 85 1020.8
20181022211037 17 98 0.0 3.2 0.00 0.00 0.00 84 1020.7
20181022210533 17 97 0.0 3.2 0.00 0.00 0.00 83 1020.7
20181022210118 17 97 0.0 3.2 0.00 0.00 0.00 83 1020.5
20181022210038 17 97 1.6 3.2 0.00 0.00 0.00 83 1020.7
20181022205535 17 97 1.6 3.2 0.00 0.00 0.00 83 1020.7
20181022205037 17 97 0.0 3.2 0.00 0.00 0.00 83 1020.7
20181022204533 17 97 0.0 8.0 0.00 0.00 0.00 83 1020.6
20181022204042 17 98 3.2 4.8 0.00 0.00 0.00 83 1020.7
20181022203529 17 98 1.6 3.2 0.00 0.00 0.00 83 1020.7
20181022203131 17 98 0.0 3.2 0.00 0.00 0.00 82 1020.5
20181022203044 17 98 1.6 3.2 0.00 0.00 0.00 82 1020.6
20181022202538 17 98 0.0 1.6 0.00 0.00 0.00 82 1020.7
20181022202023 17 98 0.0 4.8 0.00 0.00 0.00 82 1020.7
20181022201544 17 98 1.6 4.8 0.00 0.00 0.00 82 1020.7
20181022201040 18 47 0.0 6.4 0.00 0.00 0.00 81 1020.7
20181022200530 18 47 1.6 8.0 0.00 0.00 0.00 80 1020.6
20181022200049 18 53 4.8 8.0 0.00 0.00 0.00 80 1020.8
20181022195539 18 70 3.2 4.8 0.00 0.00 0.00 80 1020.9
20181022195024 18 70 1.6 4.8 0.00 0.00 0.00 81 1020.9
20181022194544 17 71 3.2 6.4 0.00 0.00 0.00 81 1020.8
20181022194044 18 67 3.2 8.0 0.00 0.00 0.00 81 1020.9
20181022193531 18 69 4.8 8.0 0.00 0.00 0.00 81 1020.9
20181022193051 18 77 3.2 8.0 0.00 0.00 0.00 81 1020.8
20181022193018 18 76 3.2 8.0 0.00 0.00 0.00 81 1020.7
20181022192543 18 85 4.8 8.0 0.00 0.00 0.00 81 1020.7
20181022192054 18 69 3.2 6.4 0.00 0.00 0.00 81 1020.7
20181022191644 18 65 0.0 9.7 0.00 0.00 0.00 81 1020.6
20181022191539 18 65 1.6 9.7 0.00 0.00 0.00 81 1020.8
20181022191034 18 52 4.8 9.7 0.00 0.00 0.00 81 1020.8
20181022190526 18 39 3.2 6.4 0.00 0.00 0.00 81 1020.6
20181022190043 18 61 3.2 8.0 0.00 0.00 0.00 81 1020.6
20181022190020 18 61 3.2 8.0 0.00 0.00 0.00 81 1020.4
20181022185535 18 61 4.8 8.0 0.00 0.00 0.00 81 1020.6
20181022185037 18 60 3.2 4.8 0.00 0.00 0.00 80 1020.5
20181022184053 18 123 0.0 4.8 0.00 0.00 0.00 80 1020.4
20181022183543 18 123 3.2 4.8 0.00 0.00 0.00 81 1020.4
20181022183129 18 85 0.0 4.8 0.00 0.00 0.00 81 1020.3
20181022183037 18 85 1.6 4.8 0.00 0.00 0.00 81 1020.4
20181022182533 18 49 0.0 8.0 0.00 0.00 0.00 80 1020.4
20181022182038 19 37 3.2 9.7 0.00 0.00 0.00 80 1020.3
20181022181524 19 44 3.2 4.8 0.00 0.00 0.00 80 1020.2
20181022181049 19 51 0.0 3.2 0.00 0.00 0.00 79 1020.3
20181022180533 19 50 0.0 8.0 0.00 0.00 0.00 78 1020.2
20181022180026 19 50 3.2 8.0 0.00 0.00 0.00 78 1020.1